Location: Espelette
(43.3402°N, 1.4474°W)
Time: 19:54:23
(UTC+00:00)

Cosmos-2242 - Pass Details

Date: 19 May 2025
Orbit: 569 x 594 km, 82.5° (Epoch: 21 June)

Event Time Altitude Azimuth Distance (km) Brightness Sun altitude
Exits shadow 21:27:43 12° 204° (SSW) 1,770 5.1 -17.4°
Maximum altitude 21:31:30 55° 281° (W) 723 3.6 -17.8°
Drops below altitude 10° 21:35:42 10° 359° (N) 1,937 6.4 -18.3°
Sets 21:37:58 0° 4° (N) 2,841 7.3 -18.5°
